Weather Roundup
Issued by NWS Springfield, MO

Home | Current Version | Previous Version | Text Only | Print | Product List | Glossary On
Versions: 1 2 3 4 5 6 7 8 9 10 11 12 13 14 15 16 17 18 19 20 21 22 23 24 25 26 27 28 29 30 31 32 33 34 35 36 37 38 39 40 41 42 43 44 45 46 47 48 49 50
000
NZUS99 KSGF 080057
HRRSGF

HOURLY WEATHER
NATIONAL WEATHER SERVICE SPRINGFIELD MO
700 PM CST SUN FEB 07 2016

......SGF CWA......

CITY           SKY/WX    TMP DP  RH WIND       PRES   REMARKS
SPRINGFIELD    MOCLDY    45  20  36 W7        30.01R
WEST PLAINS    MOCLDY    46  24  42 W7        29.99S
ROLLA          CLOUDY    44  21  40 W7        29.93F
BRANSON        MOCLDY    46  23  39 W5        30.04R

......SURROUNDING SGF CWA......

CITY           SKY/WX    TMP DP  RH WIND       PRES   REMARKS
CHANUTE        PTCLDY    45  13  27 NW12      30.10R
PARSONS        CLEAR     44  15  31 NW9       30.11R
COFFEYVILLE    PTCLDY    48  12  23 NW13      30.12R
EMPORIA        MOCLDY    44  18  35 NW15      30.09R
HARRISON AR    PTCLDY    45  23  42 NW6       30.03S

......KANSAS AND MISSOURI......

CITY           SKY/WX    TMP DP  RH WIND       PRES   REMARKS
KANSAS CTY INT CLOUDY    41  25  53 N24G37    30.01R
SEDALIA        PTCLDY    45  18  34 NW21G33   29.98R
ST JOSEPH      CLOUDY    38  27  64 NW16G26   30.02R WCI  29
ST LOUIS       NOT AVBL
WICHITA        PTCLDY    44  22  41 NW17      30.17R
TOPEKA         LGT RAIN  43  21  41 NW20G43   30.09R
OLATHE         CLOUDY    43  21  41 NW20G30   30.02R

......TENNESSEE......

CITY           SKY/WX    TMP DP  RH WIND       PRES   REMARKS
MEMPHIS        NOT AVBL
NASHVILLE      MOCLDY    49  17  28 SW5       29.95F

......ARKANSAS.......

CITY           SKY/WX    TMP DP  RH WIND       PRES   REMARKS
FAYETTEVILLE   CLEAR     43  27  53 W8        30.08S
FT SMITH       PTCLDY    48  24  39 W8        30.11R
LITTLE ROCK    PTCLDY    53  30  41 NW6       30.05R

......OKLAHOMA.......

CITY           SKY/WX    TMP DP  RH WIND       PRES   REMARKS
TULSA          PTCLDY    51  25  36 NW12      30.12R
PONCA CITY     PTCLDY    48  22  35 NW13G20   30.17R
MCALESTER      PTCLDY    46  28  49 N3        30.15R
OKLAHOMA CITY  CLEAR     52  24  33 N17       30.19R

......IOWA............

CITY           SKY/WX    TMP DP  RH WIND       PRES   REMARKS
DES MOINES     NOT AVBL
QUAD CITIES    CLEAR     35  27  72 W8        29.80F WCI  29

......ILLINOIS........

CITY           SKY/WX    TMP DP  RH WIND       PRES   REMARKS
QUINCY         NOT AVBL
CHICAGO        MOCLDY    38  28  67 W12       29.74F WCI  30



USA.gov is the U.S. government's official web portal to all federal, state and local government web resources and services.